Location: Newark
(49.3000°N, 9.4667°E)
Time: 09:57:50
(UTC+00:00)

Tiros 1 - Pass Details

Date: 30 May 2019
Orbit: 631 x 664 km, 48.4° (Epoch: 23 June)

Event Time Altitude Azimuth Distance (km) Brightness Sun altitude
Rises 11:32:02 0° 279° (W) 2,932 10.5 62.4°
Reaches altitude 10° 11:34:22 10° 277° (W) 2,027 9.9 62.3°
Maximum altitude 11:38:59 63° 196° (SSW) 718 11.1 62.2°
Drops below altitude 10° 11:43:38 10° 116° (ESE) 2,043 10.0 62.1°
Sets 11:45:59 0° 113° (ESE) 2,958 10.6 62.0°
